Time,TemperatureF,DewpointF,PressureIn,WindDirection,WindDirectionDegrees,WindSpeedMPH,WindSpeedGustMPH,Humidity,HourlyPrecipIn,Conditions,Clouds,dailyrainin,SolarRadiationWatts/m^2,SoftwareType,DateUTC
2013-01-27 00:00:00,43.7,37.9,30.33,South,182,0.0,2.0,80,0.00,,,0.00,0,Wunderground v.1.15,2013-01-27 05:00:00,
2013-01-27 00:06:00,43.6,37.8,30.33,SSE,150,2.0,2.0,80,0.00,,,0.00,0,Wunderground v.1.15,2013-01-27 05:06:00,
2013-01-27 00:10:00,43.6,38.2,30.34,SSE,154,3.0,3.0,81,0.00,,,0.00,0,Wunderground v.1.15,2013-01-27 05:10:00,
2013-01-27 00:15:00,43.5,38.1,30.34,SSE,154,3.0,4.0,81,0.00,,,0.00,0,Wunderground v.1.15,2013-01-27 05:15:00,
2013-01-27 00:16:00,43.5,38.1,30.34,SSE,161,0.0,4.0,81,0.00,,,0.00,0,Wunderground v.1.15,2013-01-27 05:16:00,
2013-01-27 00:22:00,43.4,38.3,30.34,South,171,3.0,3.0,82,0.00,,,0.00,0,Wunderground v.1.15,2013-01-27 05:22:00,
2013-01-27 00:28:00,43.4,38.3,30.34,South,178,2.0,3.0,82,0.00,,,0.00,0,Wunderground v.1.15,2013-01-27 05:28:00,
2013-01-27 00:33:00,43.3,38.2,30.34,South,171,2.0,2.0,82,0.00,,,0.00,0,Wunderground v.1.15,2013-01-27 05:33:00,
2013-01-27 00:38:00,43.2,38.4,30.35,South,183,3.0,3.0,83,0.00,,,0.00,0,Wunderground v.1.15,2013-01-27 05:38:00,
2013-01-27 00:43:00,43.1,38.3,30.35,SSE,167,1.0,2.0,83,0.00,,,0.00,0,Wunderground v.1.15,2013-01-27 05:43:00,
2013-01-27 00:49:00,42.8,38.0,30.35,SSE,163,2.0,3.0,83,0.00,,,0.00,0,Wunderground v.1.15,2013-01-27 05:49:00,
2013-01-27 00:55:00,42.6,38.1,30.35,SSE,167,4.0,4.0,84,0.00,,,0.00,0,Wunderground v.1.15,2013-01-27 05:55:00,
2013-01-27 01:06:00,42.3,37.8,30.35,SSE,161,2.0,2.0,84,0.00,,,0.00,0,Wunderground v.1.15,2013-01-27 06:06:00,
2013-01-27 01:12:00,42.1,37.9,30.35,SSE,168,2.0,4.0,85,0.00,,,0.00,0,Wunderground v.1.15,2013-01-27 06:12:00,
2013-01-27 01:18:00,42.0,37.8,30.35,South,173,1.0,2.0,85,0.00,,,0.00,0,Wunderground v.1.15,2013-01-27 06:18:00,
2013-01-27 01:24:00,41.9,38.0,30.35,South,171,4.0,6.0,86,0.00,,,0.00,0,Wunderground v.1.15,2013-01-27 06:24:00,
2013-01-27 01:29:00,41.8,37.9,30.35,South,173,2.0,4.0,86,0.00,,,0.00,0,Wunderground v.1.15,2013-01-27 06:29:00,
2013-01-27 01:34:00,41.8,37.9,30.35,SSE,157,3.0,4.0,86,0.00,,,0.00,0,Wunderground v.1.15,2013-01-27 06:34:00,
2013-01-27 01:39:00,41.7,37.8,30.36,SSE,160,1.0,6.0,86,0.00,,,0.00,0,Wunderground v.1.15,2013-01-27 06:39:00,
2013-01-27 01:44:00,41.6,38.0,30.36,SSE,160,3.0,6.0,87,0.00,,,0.00,0,Wunderground v.1.15,2013-01-27 06:44:00,
2013-01-27 01:50:00,41.6,38.0,30.36,SSE,161,3.0,4.0,87,0.00,,,0.00,0,Wunderground v.1.15,2013-01-27 06:50:00,
2013-01-27 01:55:00,41.6,38.0,30.36,SSE,158,3.0,4.0,87,0.00,,,0.00,0,Wunderground v.1.15,2013-01-27 06:55:00,
2013-01-27 02:06:00,41.6,38.0,30.36,South,183,1.0,3.0,87,0.00,,,0.00,0,Wunderground v.1.15,2013-01-27 07:06:00,
2013-01-27 02:13:00,41.5,37.9,30.37,South,173,2.0,4.0,87,0.00,,,0.00,0,Wunderground v.1.15,2013-01-27 07:13:00,
2013-01-27 02:18:00,41.5,37.9,30.37,SSE,165,5.0,5.0,87,0.00,,,0.00,0,Wunderground v.1.15,2013-01-27 07:18:00,
2013-01-27 02:23:00,41.4,37.5,30.37,SSE,161,2.0,5.0,86,0.00,,,0.00,0,Wunderground v.1.15,2013-01-27 07:23:00,
2013-01-27 02:28:00,41.4,37.5,30.37,SSE,153,4.0,6.0,86,0.00,,,0.00,0,Wunderground v.1.15,2013-01-27 07:28:00,
2013-01-27 02:33:00,41.3,37.4,30.37,South,170,3.0,6.0,86,0.00,,,0.00,0,Wunderground v.1.15,2013-01-27 07:33:00,
2013-01-27 02:38:00,41.2,37.3,30.37,SSE,159,0.0,5.0,86,0.00,,,0.00,0,Wunderground v.1.15,2013-01-27 07:38:00,
2013-01-27 02:43:00,41.1,36.9,30.37,SSE,163,1.0,6.0,85,0.00,,,0.00,0,Wunderground v.1.15,2013-01-27 07:43:00,
2013-01-27 02:48:00,41.1,36.9,30.37,South,189,1.0,8.0,85,0.00,,,0.00,0,Wunderground v.1.15,2013-01-27 07:48:00,
2013-01-27 02:53:00,41.0,36.8,30.38,SSE,148,3.0,8.0,85,0.00,,,0.00,0,Wunderground v.1.15,2013-01-27 07:53:00,
2013-01-27 02:58:00,41.0,36.5,30.38,SSE,148,3.0,6.0,84,0.00,,,0.00,0,Wunderground v.1.15,2013-01-27 07:58:00,
2013-01-27 03:07:00,41.1,36.3,30.38,SE,143,2.0,6.0,83,0.00,,,0.00,0,Wunderground v.1.15,2013-01-27 08:07:00,
2013-01-27 03:12:00,41.1,36.3,30.38,South,169,2.0,6.0,83,0.00,,,0.00,0,Wunderground v.1.15,2013-01-27 08:12:00,
2013-01-27 03:17:00,41.2,36.1,30.38,SSE,159,3.0,7.0,82,0.00,,,0.00,0,Wunderground v.1.15,2013-01-27 08:17:00,
2013-01-27 03:23:00,41.2,36.1,30.38,SSE,157,1.0,6.0,82,0.00,,,0.00,0,Wunderground v.1.15,2013-01-27 08:23:00,
2013-01-27 03:28:00,41.2,36.1,30.38,SSE,168,1.0,6.0,82,0.00,,,0.00,0,Wunderground v.1.15,2013-01-27 08:28:00,
2013-01-27 03:33:00,41.2,35.8,30.38,SE,144,4.0,7.0,81,0.00,,,0.00,0,Wunderground v.1.15,2013-01-27 08:33:00,
2013-01-27 03:38:00,41.2,35.8,30.38,SSE,151,3.0,7.0,81,0.00,,,0.00,0,Wunderground v.1.15,2013-01-27 08:38:00,
2013-01-27 03:43:00,41.1,35.7,30.38,SSE,168,1.0,3.0,81,0.00,,,0.00,0,Wunderground v.1.15,2013-01-27 08:43:00,
2013-01-27 03:48:00,41.0,35.6,30.38,SE,140,4.0,9.0,81,0.00,,,0.00,0,Wunderground v.1.15,2013-01-27 08:48:00,
2013-01-27 03:53:00,40.9,35.5,30.38,South,176,6.0,7.0,81,0.00,,,0.00,0,Wunderground v.1.15,2013-01-27 08:53:00,
2013-01-27 03:58:00,40.9,35.5,30.38,SSE,147,4.0,7.0,81,0.00,,,0.00,0,Wunderground v.1.15,2013-01-27 08:58:00,
2013-01-27 04:06:00,40.7,35.6,30.39,SSE,157,5.0,5.0,82,0.00,,,0.00,0,Wunderground v.1.15,2013-01-27 09:06:00,
2013-01-27 04:11:00,40.5,35.4,30.39,SE,140,1.0,6.0,82,0.00,,,0.00,0,Wunderground v.1.15,2013-01-27 09:11:00,
2013-01-27 04:16:00,40.4,35.3,30.39,South,169,4.0,9.0,82,0.00,,,0.00,0,Wunderground v.1.15,2013-01-27 09:16:00,
2013-01-27 04:21:00,40.1,35.0,30.40,SSE,159,4.0,5.0,82,0.00,,,0.00,0,Wunderground v.1.15,2013-01-27 09:21:00,
2013-01-27 04:26:00,40.0,34.9,30.40,SSE,157,3.0,7.0,82,0.00,,,0.00,0,Wunderground v.1.15,2013-01-27 09:26:00,
2013-01-27 04:31:00,39.8,34.8,30.40,SSE,154,5.0,7.0,82,0.00,,,0.00,0,Wunderground v.1.15,2013-01-27 09:31:00,
2013-01-27 04:36:00,39.6,34.6,30.40,South,175,1.0,7.0,82,0.00,,,0.00,0,Wunderground v.1.15,2013-01-27 09:36:00,
2013-01-27 04:41:00,39.4,34.4,30.40,South,179,2.0,6.0,82,0.00,,,0.00,0,Wunderground v.1.15,2013-01-27 09:41:00,
2013-01-27 04:47:00,39.3,34.3,30.39,SSE,166,1.0,6.0,82,0.00,,,0.00,0,Wunderground v.1.15,2013-01-27 09:47:00,
2013-01-27 04:52:00,39.2,33.9,30.39,SSE,163,6.0,6.0,81,0.00,,,0.00,0,Wunderground v.1.15,2013-01-27 09:52:00,
2013-01-27 04:57:00,39.1,33.8,30.40,South,179,1.0,7.0,81,0.00,,,0.00,0,Wunderground v.1.15,2013-01-27 09:57:00,
2013-01-27 05:06:00,39.0,33.7,30.40,South,171,3.0,4.0,81,0.00,,,0.00,0,Wunderground v.1.15,2013-01-27 10:06:00,
2013-01-27 05:11:00,39.0,33.4,30.40,SSW,192,3.0,6.0,80,0.00,,,0.00,0,Wunderground v.1.15,2013-01-27 10:11:00,
2013-01-27 05:16:00,38.9,33.3,30.41,SSE,161,2.0,6.0,80,0.00,,,0.00,0,Wunderground v.1.15,2013-01-27 10:16:00,
2013-01-27 05:21:00,38.9,33.3,30.41,South,186,2.0,6.0,80,0.00,,,0.00,0,Wunderground v.1.15,2013-01-27 10:21:00,
2013-01-27 05:26:00,38.9,33.3,30.41,SSE,148,1.0,6.0,80,0.00,,,0.00,0,Wunderground v.1.15,2013-01-27 10:26:00,
2013-01-27 05:31:00,38.9,33.3,30.41,SSE,161,2.0,5.0,80,0.00,,,0.00,0,Wunderground v.1.15,2013-01-27 10:31:00,
2013-01-27 05:36:00,38.9,33.3,30.41,SSE,164,1.0,5.0,80,0.00,,,0.00,0,Wunderground v.1.15,2013-01-27 10:36:00,
2013-01-27 05:41:00,38.9,33.3,30.42,SSE,158,6.0,7.0,80,0.00,,,0.00,0,Wunderground v.1.15,2013-01-27 10:41:00,
2013-01-27 05:46:00,38.8,33.2,30.42,SSE,155,4.0,7.0,80,0.00,,,0.00,0,Wunderground v.1.15,2013-01-27 10:46:00,
2013-01-27 05:51:00,38.7,33.1,30.42,South,175,3.0,6.0,80,0.00,,,0.00,0,Wunderground v.1.15,2013-01-27 10:51:00,
2013-01-27 05:56:00,38.6,32.6,30.42,SSE,153,2.0,8.0,79,0.00,,,0.00,0,Wunderground v.1.15,2013-01-27 10:56:00,
2013-01-27 06:06:00,38.6,32.6,30.42,SSE,168,1.0,4.0,79,0.00,,,0.00,0,Wunderground v.1.15,2013-01-27 11:06:00,
2013-01-27 06:11:00,38.5,32.6,30.42,SE,141,2.0,5.0,79,0.00,,,0.00,0,Wunderground v.1.15,2013-01-27 11:11:00,
2013-01-27 06:16:00,38.4,32.5,30.42,SSE,166,2.0,3.0,79,0.00,,,0.00,0,Wunderground v.1.15,2013-01-27 11:16:00,
2013-01-27 06:21:00,38.4,32.5,30.42,SSE,155,2.0,5.0,79,0.00,,,0.00,0,Wunderground v.1.15,2013-01-27 11:21:00,
2013-01-27 06:26:00,38.4,32.5,30.42,SSE,147,3.0,3.0,79,0.00,,,0.00,0,Wunderground v.1.15,2013-01-27 11:26:00,
2013-01-27 06:31:00,38.4,32.5,30.42,SSE,158,4.0,7.0,79,0.00,,,0.00,0,Wunderground v.1.15,2013-01-27 11:31:00,
2013-01-27 06:36:00,38.4,32.5,30.42,SSE,165,1.0,4.0,79,0.00,,,0.00,0,Wunderground v.1.15,2013-01-27 11:36:00,
2013-01-27 06:41:00,38.3,32.4,30.42,South,170,4.0,7.0,79,0.00,,,0.00,0,Wunderground v.1.15,2013-01-27 11:41:00,
2013-01-27 06:46:00,38.3,32.4,30.43,SSE,156,1.0,3.0,79,0.00,,,0.00,0,Wunderground v.1.15,2013-01-27 11:46:00,
2013-01-27 06:51:00,38.2,32.3,30.43,South,173,1.0,6.0,79,0.00,,,0.00,0,Wunderground v.1.15,2013-01-27 11:51:00,
2013-01-27 06:56:00,38.2,32.3,30.43,SSE,158,3.0,7.0,79,0.00,,,0.00,0,Wunderground v.1.15,2013-01-27 11:56:00,
2013-01-27 07:07:00,38.0,32.1,30.44,SSE,164,2.0,6.0,79,0.00,,,0.00,0,Wunderground v.1.15,2013-01-27 12:07:00,
2013-01-27 07:12:00,37.9,32.0,30.44,SSE,167,1.0,6.0,79,0.00,,,0.00,0,Wunderground v.1.15,2013-01-27 12:12:00,
2013-01-27 07:17:00,37.8,31.9,30.44,South,171,3.0,6.0,79,0.00,,,0.00,0,Wunderground v.1.15,2013-01-27 12:17:00,
2013-01-27 07:22:00,37.8,31.9,30.44,South,173,4.0,7.0,79,0.00,,,0.00,5,Wunderground v.1.15,2013-01-27 12:22:00,
2013-01-27 07:27:00,37.6,32.0,30.44,SSE,152,3.0,7.0,80,0.00,,,0.00,9,Wunderground v.1.15,2013-01-27 12:27:00,
2013-01-27 07:32:00,37.5,31.9,30.44,SSE,154,3.0,5.0,80,0.00,,,0.00,12,Wunderground v.1.15,2013-01-27 12:32:00,
2013-01-27 07:37:00,37.4,31.8,30.45,SSE,164,4.0,5.0,80,0.00,,,0.00,16,Wunderground v.1.15,2013-01-27 12:37:00,
2013-01-27 07:42:00,37.3,32.0,30.45,SSE,158,1.0,4.0,81,0.00,,,0.00,19,Wunderground v.1.15,2013-01-27 12:42:00,
2013-01-27 07:47:00,37.3,32.0,30.45,SSE,148,1.0,5.0,81,0.00,,,0.00,25,Wunderground v.1.15,2013-01-27 12:47:00,
2013-01-27 07:52:00,37.3,32.0,30.45,South,169,5.0,5.0,81,0.00,,,0.00,30,Wunderground v.1.15,2013-01-27 12:52:00,
2013-01-27 07:57:00,37.4,32.1,30.46,SE,134,1.0,5.0,81,0.00,,,0.00,30,Wunderground v.1.15,2013-01-27 12:57:00,
2013-01-27 08:07:00,37.6,32.3,30.46,SSE,165,5.0,6.0,81,0.00,,,0.00,39,Wunderground v.1.15,2013-01-27 13:07:00,
2013-01-27 08:12:00,37.8,32.5,30.46,SSE,156,2.0,6.0,81,0.00,,,0.00,42,Wunderground v.1.15,2013-01-27 13:12:00,
2013-01-27 08:17:00,38.0,32.7,30.46,South,172,5.0,6.0,81,0.00,,,0.00,39,Wunderground v.1.15,2013-01-27 13:17:00,
2013-01-27 08:21:00,38.2,32.9,30.46,SSE,164,2.0,8.0,81,0.00,,,0.00,47,Wunderground v.1.15,2013-01-27 13:21:00,
2013-01-27 08:27:00,38.4,33.1,30.47,South,178,3.0,8.0,81,0.00,,,0.00,49,Wunderground v.1.15,2013-01-27 13:27:00,
2013-01-27 08:32:00,38.7,33.7,30.47,SSE,161,3.0,6.0,82,0.00,,,0.00,51,Wunderground v.1.15,2013-01-27 13:32:00,
2013-01-27 08:37:00,38.9,33.6,30.47,SSE,165,3.0,7.0,81,0.00,,,0.00,60,Wunderground v.1.15,2013-01-27 13:37:00,
2013-01-27 08:42:00,39.3,34.0,30.47,SSE,159,3.0,7.0,81,0.00,,,0.00,81,Wunderground v.1.15,2013-01-27 13:42:00,
2013-01-27 08:47:00,39.6,34.2,30.48,SE,146,6.0,11.0,81,0.00,,,0.00,79,Wunderground v.1.15,2013-01-27 13:47:00,
2013-01-27 08:52:00,39.8,34.4,30.48,South,185,4.0,8.0,81,0.00,,,0.00,83,Wunderground v.1.15,2013-01-27 13:52:00,
2013-01-27 08:57:00,40.0,34.6,30.48,South,182,4.0,13.0,81,0.00,,,0.00,79,Wunderground v.1.15,2013-01-27 13:57:00,
2013-01-27 09:06:00,40.6,35.2,30.49,SSE,167,10.0,10.0,81,0.00,,,0.00,107,Wunderground v.1.15,2013-01-27 14:06:00,
2013-01-27 09:11:00,40.9,35.5,30.49,SSE,151,4.0,9.0,81,0.00,,,0.00,116,Wunderground v.1.15,2013-01-27 14:11:00,
2013-01-27 09:16:00,41.2,35.5,30.49,SSE,157,4.0,9.0,80,0.00,,,0.00,88,Wunderground v.1.15,2013-01-27 14:16:00,
2013-01-27 09:21:00,41.5,35.8,30.49,SSE,160,5.0,7.0,80,0.00,,,0.00,118,Wunderground v.1.15,2013-01-27 14:21:00,
2013-01-27 09:26:00,41.7,36.0,30.49,SSW,196,6.0,8.0,80,0.00,,,0.00,141,Wunderground v.1.15,2013-01-27 14:26:00,
2013-01-27 09:31:00,42.1,36.4,30.50,SE,137,4.0,6.0,80,0.00,,,0.00,158,Wunderground v.1.15,2013-01-27 14:31:00,
2013-01-27 09:36:00,42.7,36.6,30.49,South,170,0.0,7.0,79,0.00,,,0.00,230,Wunderground v.1.15,2013-01-27 14:36:00,
2013-01-27 09:41:00,43.2,37.1,30.49,SSE,147,3.0,8.0,79,0.00,,,0.00,352,Wunderground v.1.15,2013-01-27 14:41:00,
2013-01-27 09:46:00,43.7,37.3,30.49,SSE,152,3.0,8.0,78,0.00,,,0.00,427,Wunderground v.1.15,2013-01-27 14:46:00,
2013-01-27 09:51:00,44.2,37.4,30.49,SSE,159,4.0,7.0,77,0.00,,,0.00,450,Wunderground v.1.15,2013-01-27 14:51:00,
2013-01-27 09:56:00,44.9,38.1,30.50,SE,141,1.0,7.0,77,0.00,,,0.00,459,Wunderground v.1.15,2013-01-27 14:56:00,
2013-01-27 10:06:00,45.7,38.6,30.50,SSE,153,3.0,5.0,76,0.00,,,0.00,478,Wunderground v.1.15,2013-01-27 15:06:00,
2013-01-27 10:11:00,46.3,39.1,30.50,SSE,167,2.0,9.0,76,0.00,,,0.00,459,Wunderground v.1.15,2013-01-27 15:11:00,
2013-01-27 10:16:00,47.0,39.5,30.50,SSE,154,6.0,10.0,75,0.00,,,0.00,503,Wunderground v.1.15,2013-01-27 15:16:00,
2013-01-27 10:21:00,47.5,39.6,30.51,SSE,155,2.0,9.0,74,0.00,,,0.00,510,Wunderground v.1.15,2013-01-27 15:21:00,
2013-01-27 10:26:00,48.1,39.9,30.51,WSW,240,5.0,9.0,73,0.00,,,0.00,517,Wunderground v.1.15,2013-01-27 15:26:00,
2013-01-27 10:31:00,48.4,39.8,30.51,South,191,4.0,9.0,72,0.00,,,0.00,533,Wunderground v.1.15,2013-01-27 15:31:00,
2013-01-27 10:36:00,48.7,40.1,30.51,South,180,0.0,9.0,72,0.00,,,0.00,545,Wunderground v.1.15,2013-01-27 15:36:00,
2013-01-27 10:41:00,49.5,40.5,30.51,North,360,1.0,4.0,71,0.00,,,0.00,555,Wunderground v.1.15,2013-01-27 15:41:00,
2013-01-27 10:47:00,50.3,40.9,30.51,South,173,3.0,7.0,70,0.00,,,0.00,571,Wunderground v.1.15,2013-01-27 15:47:00,
2013-01-27 10:52:00,50.9,41.1,30.51,SE,136,1.0,3.0,69,0.00,,,0.00,578,Wunderground v.1.15,2013-01-27 15:52:00,
2013-01-27 10:57:00,51.1,40.5,30.51,SSW,192,4.0,13.0,67,0.00,,,0.00,591,Wunderground v.1.15,2013-01-27 15:57:00,
2013-01-27 11:06:00,50.4,40.2,30.51,SSW,203,8.0,9.0,68,0.00,,,0.00,598,Wunderground v.1.15,2013-01-27 16:06:00,
2013-01-27 11:11:00,50.1,40.3,30.51,SSE,168,1.0,11.0,69,0.00,,,0.00,603,Wunderground v.1.15,2013-01-27 16:11:00,
2013-01-27 11:16:00,49.9,40.5,30.51,WSW,256,1.0,14.0,70,0.00,,,0.00,626,Wunderground v.1.15,2013-01-27 16:16:00,
2013-01-27 11:21:00,50.3,40.9,30.51,SSE,149,6.0,6.0,70,0.00,,,0.00,633,Wunderground v.1.15,2013-01-27 16:21:00,
2013-01-27 11:26:00,50.8,41.4,30.51,SSW,199,2.0,8.0,70,0.00,,,0.00,645,Wunderground v.1.15,2013-01-27 16:26:00,
2013-01-27 11:31:00,51.1,41.3,30.51,ESE,107,5.0,8.0,69,0.00,,,0.00,645,Wunderground v.1.15,2013-01-27 16:31:00,
2013-01-27 11:36:00,51.1,40.9,30.51,South,189,2.0,9.0,68,0.00,,,0.00,617,Wunderground v.1.15,2013-01-27 16:36:00,
2013-01-27 11:41:00,51.0,41.6,30.51,SSE,167,3.0,8.0,70,0.00,,,0.00,671,Wunderground v.1.15,2013-01-27 16:41:00,
2013-01-27 11:47:00,51.1,41.3,30.52,South,189,2.0,10.0,69,0.00,,,0.00,605,Wunderground v.1.15,2013-01-27 16:47:00,
2013-01-27 11:52:00,51.2,41.4,30.51,SSE,165,1.0,5.0,69,0.00,,,0.00,649,Wunderground v.1.15,2013-01-27 16:52:00,
2013-01-27 11:57:00,51.3,41.1,30.51,SSW,196,1.0,5.0,68,0.00,,,0.00,578,Wunderground v.1.15,2013-01-27 16:57:00,
2013-01-27 12:07:00,52.1,41.5,30.50,SSW,206,3.0,3.0,67,0.00,,,0.00,668,Wunderground v.1.15,2013-01-27 17:07:00,
2013-01-27 12:12:00,51.8,41.2,30.50,SSE,157,3.0,6.0,67,0.00,,,0.00,691,Wunderground v.1.15,2013-01-27 17:12:00,
2013-01-27 12:17:00,51.4,41.2,30.50,SSW,199,4.0,7.0,68,0.00,,,0.00,679,Wunderground v.1.15,2013-01-27 17:17:00,
2013-01-27 12:22:00,51.0,41.2,30.50,South,186,4.0,4.0,69,0.00,,,0.00,693,Wunderground v.1.15,2013-01-27 17:22:00,
2013-01-27 12:27:00,51.0,41.2,30.50,SSE,163,4.0,9.0,69,0.00,,,0.00,656,Wunderground v.1.15,2013-01-27 17:27:00,
2013-01-27 12:32:00,51.5,42.0,30.50,ESE,111,2.0,5.0,70,0.00,,,0.00,684,Wunderground v.1.15,2013-01-27 17:32:00,
2013-01-27 12:37:00,51.9,41.7,30.49,South,182,3.0,11.0,68,0.00,,,0.00,703,Wunderground v.1.15,2013-01-27 17:37:00,
2013-01-27 12:42:00,51.9,41.3,30.50,SSW,200,4.0,10.0,67,0.00,,,0.00,666,Wunderground v.1.15,2013-01-27 17:42:00,
2013-01-27 12:47:00,51.0,41.2,30.49,SE,143,3.0,12.0,69,0.00,,,0.00,689,Wunderground v.1.15,2013-01-27 17:47:00,
2013-01-27 12:52:00,51.3,41.5,30.49,SSE,161,5.0,8.0,69,0.00,,,0.00,659,Wunderground v.1.15,2013-01-27 17:52:00,
2013-01-27 12:57:00,51.1,41.3,30.49,SW,229,5.0,9.0,69,0.00,,,0.00,686,Wunderground v.1.15,2013-01-27 17:57:00,
2013-01-27 13:07:00,51.4,41.2,30.49,South,169,3.0,6.0,68,0.00,,,0.00,680,Wunderground v.1.15,2013-01-27 18:07:00,
2013-01-27 13:12:00,51.5,40.9,30.48,SSE,163,6.0,8.0,67,0.00,,,0.00,661,Wunderground v.1.15,2013-01-27 18:12:00,
2013-01-27 13:17:00,51.6,41.0,30.49,SSE,165,1.0,8.0,67,0.00,,,0.00,668,Wunderground v.1.15,2013-01-27 18:17:00,
2013-01-27 13:22:00,51.5,40.9,30.49,SE,144,5.0,10.0,67,0.00,,,0.00,680,Wunderground v.1.15,2013-01-27 18:22:00,
2013-01-27 13:27:00,51.3,40.7,30.49,SSW,196,4.0,11.0,67,0.00,,,0.00,654,Wunderground v.1.15,2013-01-27 18:27:00,
2013-01-27 13:32:00,51.3,40.7,30.49,SSW,209,4.0,7.0,67,0.00,,,0.00,666,Wunderground v.1.15,2013-01-27 18:32:00,
2013-01-27 13:37:00,51.4,40.4,30.49,South,175,2.0,11.0,66,0.00,,,0.00,668,Wunderground v.1.15,2013-01-27 18:37:00,
2013-01-27 13:42:00,51.6,40.6,30.49,SE,140,1.0,6.0,66,0.00,,,0.00,619,Wunderground v.1.15,2013-01-27 18:42:00,
2013-01-27 13:47:00,52.0,40.6,30.49,South,188,3.0,6.0,65,0.00,,,0.00,635,Wunderground v.1.15,2013-01-27 18:47:00,
2013-01-27 13:53:00,51.9,40.1,30.48,SSE,151,3.0,8.0,64,0.00,,,0.00,633,Wunderground v.1.15,2013-01-27 18:53:00,
2013-01-27 13:58:00,51.9,40.1,30.48,South,180,2.0,8.0,64,0.00,,,0.00,628,Wunderground v.1.15,2013-01-27 18:58:00,
2013-01-27 14:07:00,52.0,40.2,30.49,SSW,209,2.0,6.0,64,0.00,,,0.00,582,Wunderground v.1.15,2013-01-27 19:07:00,
2013-01-27 14:12:00,51.6,39.8,30.49,SSE,150,3.0,5.0,64,0.00,,,0.00,587,Wunderground v.1.15,2013-01-27 19:12:00,
2013-01-27 14:17:00,51.6,40.2,30.49,SSE,167,0.0,7.0,65,0.00,,,0.00,550,Wunderground v.1.15,2013-01-27 19:17:00,
2013-01-27 14:22:00,51.8,40.0,30.48,SSE,151,7.0,7.0,64,0.00,,,0.00,566,Wunderground v.1.15,2013-01-27 19:22:00,
2013-01-27 14:27:00,51.7,39.9,30.49,South,171,3.0,9.0,64,0.00,,,0.00,571,Wunderground v.1.15,2013-01-27 19:27:00,
2013-01-27 14:32:00,50.9,39.9,30.48,NW,307,2.0,7.0,66,0.00,,,0.00,524,Wunderground v.1.15,2013-01-27 19:32:00,
2013-01-27 14:37:00,51.0,40.0,30.48,SW,219,5.0,9.0,66,0.00,,,0.00,538,Wunderground v.1.15,2013-01-27 19:37:00,
2013-01-27 14:42:00,50.8,39.5,30.49,SW,221,3.0,10.0,65,0.00,,,0.00,545,Wunderground v.1.15,2013-01-27 19:42:00,
2013-01-27 14:47:00,51.1,40.1,30.48,SSE,163,4.0,10.0,66,0.00,,,0.00,536,Wunderground v.1.15,2013-01-27 19:47:00,
2013-01-27 14:52:00,51.4,39.6,30.48,SSW,204,5.0,6.0,64,0.00,,,0.00,527,Wunderground v.1.15,2013-01-27 19:52:00,
2013-01-27 14:57:00,50.8,39.1,30.48,WSW,243,1.0,10.0,64,0.00,,,0.00,513,Wunderground v.1.15,2013-01-27 19:57:00,
2013-01-27 15:06:00,50.7,39.7,30.49,South,173,2.0,3.0,66,0.00,,,0.00,487,Wunderground v.1.15,2013-01-27 20:06:00,
2013-01-27 15:11:00,50.9,39.5,30.49,SSW,213,3.0,4.0,65,0.00,,,0.00,473,Wunderground v.1.15,2013-01-27 20:11:00,
2013-01-27 15:16:00,50.9,38.7,30.49,South,171,5.0,8.0,63,0.00,,,0.00,461,Wunderground v.1.15,2013-01-27 20:16:00,
2013-01-27 15:21:00,50.5,39.2,30.48,SE,146,7.0,7.0,65,0.00,,,0.00,448,Wunderground v.1.15,2013-01-27 20:21:00,
2013-01-27 15:26:00,50.2,38.9,30.48,SSW,200,6.0,9.0,65,0.00,,,0.00,432,Wunderground v.1.15,2013-01-27 20:26:00,
2013-01-27 15:31:00,50.1,38.8,30.48,SSE,164,2.0,5.0,65,0.00,,,0.00,417,Wunderground v.1.15,2013-01-27 20:31:00,
2013-01-27 15:36:00,50.0,39.1,30.48,South,179,2.0,9.0,66,0.00,,,0.00,401,Wunderground v.1.15,2013-01-27 20:36:00,
2013-01-27 15:41:00,49.9,39.4,30.48,SE,144,3.0,4.0,67,0.00,,,0.00,385,Wunderground v.1.15,2013-01-27 20:41:00,
2013-01-27 15:46:00,49.8,39.3,30.48,SSE,159,2.0,9.0,67,0.00,,,0.00,364,Wunderground v.1.15,2013-01-27 20:46:00,
2013-01-27 15:51:00,49.9,39.4,30.48,South,178,1.0,4.0,67,0.00,,,0.00,316,Wunderground v.1.15,2013-01-27 20:51:00,
2013-01-27 15:56:00,49.9,39.4,30.48,South,182,1.0,7.0,67,0.00,,,0.00,195,Wunderground v.1.15,2013-01-27 20:56:00,
2013-01-27 16:06:00,49.2,39.1,30.49,South,174,3.0,5.0,68,0.00,,,0.00,93,Wunderground v.1.15,2013-01-27 21:06:00,
2013-01-27 16:11:00,49.3,39.6,30.49,South,186,3.0,10.0,69,0.00,,,0.00,65,Wunderground v.1.15,2013-01-27 21:11:00,
2013-01-27 16:16:00,49.1,39.0,30.49,SSE,160,4.0,6.0,68,0.00,,,0.00,58,Wunderground v.1.15,2013-01-27 21:16:00,
2013-01-27 16:21:00,48.7,39.0,30.49,South,176,3.0,9.0,69,0.00,,,0.00,54,Wunderground v.1.15,2013-01-27 21:21:00,
2013-01-27 16:26:00,48.4,39.1,30.49,SSE,162,4.0,5.0,70,0.00,,,0.00,53,Wunderground v.1.15,2013-01-27 21:26:00,
2013-01-27 16:31:00,48.2,39.2,30.49,South,186,3.0,9.0,71,0.00,,,0.00,51,Wunderground v.1.15,2013-01-27 21:31:00,
2013-01-27 16:36:00,48.2,39.2,30.49,South,178,4.0,5.0,71,0.00,,,0.00,49,Wunderground v.1.15,2013-01-27 21:36:00,
2013-01-27 16:41:00,48.2,39.2,30.49,SSE,147,3.0,9.0,71,0.00,,,0.00,49,Wunderground v.1.15,2013-01-27 21:41:00,
2013-01-27 16:46:00,48.1,38.8,30.49,SSW,210,5.0,8.0,70,0.00,,,0.00,47,Wunderground v.1.15,2013-01-27 21:46:00,
2013-01-27 16:51:00,47.8,38.5,30.48,SSW,196,5.0,12.0,70,0.00,,,0.00,46,Wunderground v.1.15,2013-01-27 21:51:00,
2013-01-27 16:56:00,47.8,38.8,30.49,SSE,167,5.0,8.0,71,0.00,,,0.00,40,Wunderground v.1.15,2013-01-27 21:56:00,
2013-01-27 17:07:00,47.6,39.0,30.49,SSW,199,5.0,6.0,72,0.00,,,0.00,35,Wunderground v.1.15,2013-01-27 22:07:00,
2013-01-27 17:12:00,47.3,39.1,30.49,WSW,238,4.0,7.0,73,0.00,,,0.00,32,Wunderground v.1.15,2013-01-27 22:12:00,
2013-01-27 17:17:00,47.1,39.2,30.49,SSW,199,3.0,9.0,74,0.00,,,0.00,26,Wunderground v.1.15,2013-01-27 22:17:00,
2013-01-27 17:22:00,46.9,39.0,30.49,South,186,4.0,9.0,74,0.00,,,0.00,23,Wunderground v.1.15,2013-01-27 22:22:00,
2013-01-27 17:27:00,46.7,39.2,30.49,SSE,158,6.0,10.0,75,0.00,,,0.00,16,Wunderground v.1.15,2013-01-27 22:27:00,
2013-01-27 17:32:00,46.5,39.0,30.49,SSW,199,3.0,10.0,75,0.00,,,0.00,12,Wunderground v.1.15,2013-01-27 22:32:00,
2013-01-27 17:37:00,46.4,38.9,30.49,SE,132,4.0,10.0,75,0.00,,,0.00,9,Wunderground v.1.15,2013-01-27 22:37:00,
2013-01-27 17:42:00,46.3,39.1,30.50,SSE,163,4.0,9.0,76,0.00,,,0.00,5,Wunderground v.1.15,2013-01-27 22:42:00,
2013-01-27 17:47:00,46.1,39.0,30.50,ESE,123,3.0,9.0,76,0.00,,,0.00,0,Wunderground v.1.15,2013-01-27 22:47:00,
2013-01-27 17:52:00,46.0,38.9,30.50,SSE,156,5.0,7.0,76,0.00,,,0.00,0,Wunderground v.1.15,2013-01-27 22:52:00,
2013-01-27 17:57:00,45.9,39.1,30.50,SE,135,3.0,9.0,77,0.00,,,0.00,0,Wunderground v.1.15,2013-01-27 22:57:00,
2013-01-27 18:07:00,45.6,38.8,30.51,SSE,158,4.0,6.0,77,0.00,,,0.00,0,Wunderground v.1.15,2013-01-27 23:07:00,
2013-01-27 18:12:00,45.5,38.7,30.51,SSE,166,0.0,5.0,77,0.00,,,0.00,0,Wunderground v.1.15,2013-01-27 23:12:00,
2013-01-27 18:17:00,45.4,38.9,30.51,South,173,2.0,5.0,78,0.00,,,0.00,0,Wunderground v.1.15,2013-01-27 23:17:00,
2013-01-27 18:22:00,45.2,38.7,30.51,South,173,0.0,3.0,78,0.00,,,0.00,0,Wunderground v.1.15,2013-01-27 23:22:00,
2013-01-27 18:27:00,45.1,38.6,30.51,SSE,151,5.0,9.0,78,0.00,,,0.00,0,Wunderground v.1.15,2013-01-27 23:27:00,
2013-01-27 18:32:00,45.0,38.6,30.51,South,170,0.0,3.0,78,0.00,,,0.00,0,Wunderground v.1.15,2013-01-27 23:32:00,
2013-01-27 18:37:00,44.9,38.8,30.51,South,180,1.0,6.0,79,0.00,,,0.00,0,Wunderground v.1.15,2013-01-27 23:37:00,
2013-01-27 18:42:00,44.7,38.6,30.52,South,171,3.0,5.0,79,0.00,,,0.00,0,Wunderground v.1.15,2013-01-27 23:42:00,
2013-01-27 18:47:00,44.7,38.6,30.52,South,181,0.0,5.0,79,0.00,,,0.00,0,Wunderground v.1.15,2013-01-27 23:47:00,
2013-01-27 18:52:00,44.6,38.5,30.52,SSE,155,1.0,4.0,79,0.00,,,0.00,0,Wunderground v.1.15,2013-01-27 23:52:00,
2013-01-27 18:57:00,44.5,38.4,30.52,SSE,159,3.0,6.0,79,0.00,,,0.00,0,Wunderground v.1.15,2013-01-27 23:57:00,
2013-01-27 19:07:00,44.3,38.5,30.51,SSE,167,0.0,3.0,80,0.00,,,0.00,0,Wunderground v.1.15,2013-01-28 00:07:00,
2013-01-27 19:12:00,44.2,38.4,30.52,South,184,0.0,3.0,80,0.00,,,0.00,0,Wunderground v.1.15,2013-01-28 00:12:00,
2013-01-27 19:17:00,44.1,38.3,30.52,South,191,3.0,5.0,80,0.00,,,0.00,0,Wunderground v.1.15,2013-01-28 00:17:00,
2013-01-27 19:22:00,44.1,38.3,30.51,South,184,0.0,6.0,80,0.00,,,0.00,0,Wunderground v.1.15,2013-01-28 00:22:00,
2013-01-27 19:27:00,44.1,38.3,30.51,SSE,157,0.0,6.0,80,0.00,,,0.00,0,Wunderground v.1.15,2013-01-28 00:27:00,
2013-01-27 19:32:00,44.1,38.6,30.52,SE,134,6.0,6.0,81,0.00,,,0.00,0,Wunderground v.1.15,2013-01-28 00:32:00,
2013-01-27 19:37:00,44.1,38.6,30.52,SSE,155,4.0,6.0,81,0.00,,,0.00,0,Wunderground v.1.15,2013-01-28 00:37:00,
2013-01-27 19:42:00,44.1,38.6,30.51,South,176,4.0,5.0,81,0.00,,,0.00,0,Wunderground v.1.15,2013-01-28 00:42:00,
2013-01-27 19:47:00,44.2,38.7,30.51,South,181,8.0,8.0,81,0.00,,,0.00,0,Wunderground v.1.15,2013-01-28 00:47:00,
2013-01-27 19:52:00,44.2,38.7,30.51,South,172,3.0,7.0,81,0.00,,,0.00,0,Wunderground v.1.15,2013-01-28 00:52:00,
2013-01-27 19:57:00,44.1,38.6,30.51,SE,146,3.0,7.0,81,0.00,,,0.00,0,Wunderground v.1.15,2013-01-28 00:57:00,
2013-01-27 20:06:00,43.9,38.4,30.51,SSE,154,5.0,5.0,81,0.00,,,0.00,0,Wunderground v.1.15,2013-01-28 01:06:00,
2013-01-27 20:11:00,43.8,38.7,30.51,South,169,1.0,3.0,82,0.00,,,0.00,0,Wunderground v.1.15,2013-01-28 01:11:00,
2013-01-27 20:16:00,43.8,38.7,30.52,South,170,2.0,3.0,82,0.00,,,0.00,0,Wunderground v.1.15,2013-01-28 01:16:00,
2013-01-27 20:21:00,43.7,38.6,30.52,South,172,1.0,2.0,82,0.00,,,0.00,0,Wunderground v.1.15,2013-01-28 01:21:00,
2013-01-27 20:26:00,43.7,38.6,30.52,South,178,2.0,4.0,82,0.00,,,0.00,0,Wunderground v.1.15,2013-01-28 01:26:00,
2013-01-27 20:31:00,43.8,38.7,30.52,SSE,165,1.0,4.0,82,0.00,,,0.00,0,Wunderground v.1.15,2013-01-28 01:31:00,
2013-01-27 20:37:00,43.9,38.8,30.51,SSE,157,2.0,6.0,82,0.00,,,0.00,0,Wunderground v.1.15,2013-01-28 01:37:00,
2013-01-27 20:42:00,43.9,38.8,30.51,SSE,157,1.0,5.0,82,0.00,,,0.00,0,Wunderground v.1.15,2013-01-28 01:42:00,
2013-01-27 20:47:00,43.9,38.8,30.51,South,169,2.0,6.0,82,0.00,,,0.00,0,Wunderground v.1.15,2013-01-28 01:47:00,
2013-01-27 20:52:00,43.9,38.8,30.51,South,188,2.0,4.0,82,0.00,,,0.00,0,Wunderground v.1.15,2013-01-28 01:52:00,
2013-01-27 20:57:00,44.0,38.9,30.51,SSE,163,5.0,7.0,82,0.00,,,0.00,0,Wunderground v.1.15,2013-01-28 01:57:00,
2013-01-27 21:06:00,43.9,38.8,30.50,SSE,163,0.0,3.0,82,0.00,,,0.00,0,Wunderground v.1.15,2013-01-28 02:06:00,
2013-01-27 21:11:00,43.9,38.8,30.50,South,176,2.0,6.0,82,0.00,,,0.00,0,Wunderground v.1.15,2013-01-28 02:11:00,
2013-01-27 21:16:00,43.9,38.8,30.50,SSE,154,6.0,9.0,82,0.00,,,0.00,0,Wunderground v.1.15,2013-01-28 02:16:00,
2013-01-27 21:21:00,43.9,38.8,30.50,SSE,153,1.0,3.0,82,0.00,,,0.00,0,Wunderground v.1.15,2013-01-28 02:21:00,
2013-01-27 21:26:00,43.9,38.8,30.50,SSE,150,0.0,5.0,82,0.00,,,0.00,0,Wunderground v.1.15,2013-01-28 02:26:00,
2013-01-27 21:31:00,43.9,38.8,30.50,SSE,167,2.0,5.0,82,0.00,,,0.00,0,Wunderground v.1.15,2013-01-28 02:31:00,
2013-01-27 21:36:00,44.0,38.9,30.50,SSE,151,2.0,5.0,82,0.00,,,0.00,0,Wunderground v.1.15,2013-01-28 02:36:00,
2013-01-27 21:42:00,44.0,38.9,30.50,SSE,162,2.0,3.0,82,0.00,,,0.00,0,Wunderground v.1.15,2013-01-28 02:42:00,
2013-01-27 21:47:00,44.0,38.9,30.50,SSE,163,1.0,5.0,82,0.00,,,0.00,0,Wunderground v.1.15,2013-01-28 02:47:00,
2013-01-27 21:52:00,44.0,38.9,30.50,SSE,165,2.0,2.0,82,0.00,,,0.00,0,Wunderground v.1.15,2013-01-28 02:52:00,
2013-01-27 21:57:00,44.0,38.9,30.50,SSE,163,4.0,5.0,82,0.00,,,0.00,0,Wunderground v.1.15,2013-01-28 02:57:00,
2013-01-27 22:04:00,44.0,38.9,30.50,SSE,161,0.0,3.0,82,0.00,,,0.00,0,Wunderground v.1.15,2013-01-28 03:04:00,
2013-01-27 22:09:00,44.0,38.9,30.50,SSE,158,3.0,5.0,82,0.00,,,0.00,0,Wunderground v.1.15,2013-01-28 03:09:00,
2013-01-27 22:14:00,44.0,38.5,30.50,SSE,163,0.0,3.0,81,0.00,,,0.00,0,Wunderground v.1.15,2013-01-28 03:14:00,
2013-01-27 22:19:00,44.0,38.5,30.50,SSE,165,0.0,3.0,81,0.00,,,0.00,0,Wunderground v.1.15,2013-01-28 03:19:00,
2013-01-27 22:24:00,43.8,38.3,30.50,SSE,165,0.0,2.0,81,0.00,,,0.00,0,Wunderground v.1.15,2013-01-28 03:24:00,
2013-01-27 22:29:00,43.8,38.3,30.50,SSE,165,0.0,2.0,81,0.00,,,0.00,0,Wunderground v.1.15,2013-01-28 03:29:00,
2013-01-27 22:34:00,43.7,38.3,30.50,SE,142,0.0,3.0,81,0.00,,,0.00,0,Wunderground v.1.15,2013-01-28 03:34:00,
2013-01-27 22:40:00,43.6,38.5,30.49,SSE,159,2.0,2.0,82,0.00,,,0.00,0,Wunderground v.1.15,2013-01-28 03:40:00,
2013-01-27 22:45:00,43.6,38.5,30.49,SSE,162,1.0,3.0,82,0.00,,,0.00,0,Wunderground v.1.15,2013-01-28 03:45:00,
2013-01-27 22:50:00,43.6,38.5,30.49,South,184,0.0,1.0,82,0.00,,,0.00,0,Wunderground v.1.15,2013-01-28 03:50:00,
2013-01-27 22:55:00,43.6,38.5,30.49,SSE,154,4.0,4.0,82,0.00,,,0.00,0,Wunderground v.1.15,2013-01-28 03:55:00,
2013-01-27 23:06:00,43.6,38.5,30.49,SSE,167,1.0,1.0,82,0.00,,,0.00,0,Wunderground v.1.15,2013-01-28 04:06:00,
2013-01-27 23:11:00,43.6,38.5,30.49,SSE,167,1.0,1.0,82,0.00,,,0.00,0,Wunderground v.1.15,2013-01-28 04:11:00,
2013-01-27 23:16:00,43.8,38.7,30.49,South,185,1.0,3.0,82,0.00,,,0.00,0,Wunderground v.1.15,2013-01-28 04:16:00,
2013-01-27 23:21:00,44.0,38.5,30.49,SSE,163,0.0,1.0,81,0.00,,,0.00,0,Wunderground v.1.15,2013-01-28 04:21:00,
2013-01-27 23:26:00,44.3,38.8,30.49,SSE,157,0.0,3.0,81,0.00,,,0.00,0,Wunderground v.1.15,2013-01-28 04:26:00,
2013-01-27 23:31:00,44.6,38.8,30.49,SSE,155,1.0,4.0,80,0.00,,,0.00,0,Wunderground v.1.15,2013-01-28 04:31:00,
2013-01-27 23:36:00,45.1,38.6,30.49,South,172,0.0,5.0,78,0.00,,,0.00,0,Wunderground v.1.15,2013-01-28 04:36:00,
2013-01-27 23:41:00,45.5,38.7,30.49,SSE,148,0.0,3.0,77,0.00,,,0.00,0,Wunderground v.1.15,2013-01-28 04:41:00,
2013-01-27 23:46:00,45.8,39.0,30.49,South,180,2.0,5.0,77,0.00,,,0.00,0,Wunderground v.1.15,2013-01-28 04:46:00,
2013-01-27 23:51:00,46.0,38.9,30.48,SSE,165,3.0,6.0,76,0.00,,,0.00,0,Wunderground v.1.15,2013-01-28 04:51:00,
2013-01-27 23:56:00,46.1,39.0,30.48,SSE,149,3.0,9.0,76,0.00,,,0.00,0,Wunderground v.1.15,2013-01-28 04:56:00,